AFR1620 LFPG-LEZL

Flight info

Callsign AFR1620
Flight time 2h 6m
Altitude 35000
Route AGOPA DCT ARKIP DCT ARMAL DCT ARTAX DCT BEBIX DCT LMG DCT UVELI DCT OSMOB DCT VAVIX DCT NETUK N857 HIJ
Aircraft A321/M-SDE3FGHIRWY/LB1

Departure

Time 2026-05-01 11:41
Airport Charles de Gaulle International Airport (LFPG)

Arrival

Time 2026-05-01 13:48
Airport Seville Airport (LEZL)
Time Latitude Longitude Altitude Speed Heading
2026-05-01 10:54 49.00661 2.57574 354 ft 0 kts 249°
2026-05-01 11:29 49.00663 2.57580 362 ft 3 kts 249°
2026-05-01 11:30 49.00672 2.57617 363 ft 4 kts 258°
2026-05-01 11:30 49.00671 2.57652 363 ft 4 kts 306°
2026-05-01 11:30 49.00654 2.57672 355 ft 2 kts 355°
2026-05-01 11:30 49.00647 2.57673 355 ft 0 kts 355°
2026-05-01 11:33 49.00654 2.57672 355 ft 4 kts 355°
2026-05-01 11:33 49.00705 2.57666 356 ft 9 kts 355°
2026-05-01 11:33 49.00757 2.57649 356 ft 8 kts 332°
2026-05-01 11:33 49.00790 2.57551 357 ft 13 kts 267°
2026-05-01 11:34 49.00780 2.57394 363 ft 15 kts 264°
2026-05-01 11:34 49.00758 2.57247 361 ft 14 kts 229°
2026-05-01 11:34 49.00686 2.57163 358 ft 13 kts 242°
2026-05-01 11:34 49.00662 2.57037 361 ft 12 kts 257°
2026-05-01 11:35 49.00651 2.56899 353 ft 15 kts 264°
2026-05-01 11:35 49.00642 2.56715 359 ft 18 kts 265°
2026-05-01 11:35 49.00632 2.56527 353 ft 17 kts 265°
2026-05-01 11:35 49.00623 2.56352 360 ft 16 kts 265°
2026-05-01 11:36 49.00614 2.56190 353 ft 15 kts 265°
2026-05-01 11:36 49.00598 2.56045 353 ft 13 kts 250°
2026-05-01 11:36 49.00573 2.55917 356 ft 12 kts 262°
2026-05-01 11:36 49.00564 2.55764 362 ft 17 kts 265°
2026-05-01 11:37 49.00554 2.55568 353 ft 18 kts 265°
2026-05-01 11:37 49.00530 2.55386 358 ft 17 kts 235°
2026-05-01 11:37 49.00430 2.55337 359 ft 15 kts 170°
2026-05-01 11:37 49.00333 2.55378 357 ft 14 kts 164°
2026-05-01 11:38 49.00238 2.55419 358 ft 14 kts 164°
2026-05-01 11:38 49.00139 2.55461 358 ft 15 kts 163°
2026-05-01 11:38 49.00037 2.55508 358 ft 16 kts 163°
2026-05-01 11:38 48.99931 2.55557 357 ft 16 kts 159°
2026-05-01 11:39 48.99850 2.55675 362 ft 17 kts 116°
2026-05-01 11:39 48.99800 2.55803 356 ft 11 kts 156°
2026-05-01 11:39 48.99721 2.55814 354 ft 12 kts 176°
2026-05-01 11:39 48.99636 2.55822 353 ft 13 kts 176°
2026-05-01 11:40 48.99604 2.55921 353 ft 12 kts 85°
2026-05-01 11:40 48.99617 2.56155 358 ft 48 kts 85°
2026-05-01 11:40 48.99662 2.56998 357 ft 109 kts 85°
2026-05-01 11:40 48.99737 2.58407 355 ft 156 kts 85°
2026-05-01 11:41 48.99832 2.60195 635 ft 171 kts 85°
2026-05-01 11:41 48.99926 2.61999 1293 ft 171 kts 86°
2026-05-01 11:41 49.00021 2.63809 1943 ft 171 kts 86°
2026-05-01 11:41 49.00118 2.65679 2355 ft 188 kts 87°
2026-05-01 11:42 49.00226 2.67779 2649 ft 209 kts 88°
2026-05-01 11:42 49.00346 2.70113 2865 ft 234 kts 88°
2026-05-01 11:42 49.00478 2.72700 3244 ft 253 kts 87°
2026-05-01 11:42 49.00618 2.75417 3999 ft 261 kts 88°
2026-05-01 11:43 49.00700 2.78192 4767 ft 263 kts 97°
2026-05-01 11:43 49.00478 2.80972 5520 ft 265 kts 100°
2026-05-01 11:43 49.00188 2.83761 6277 ft 268 kts 101°
2026-05-01 11:44 48.99534 2.89408 7601 ft 273 kts 106°
2026-05-01 11:44 48.98733 2.92003 8256 ft 272 kts 129°
2026-05-01 11:44 48.97308 2.93882 8891 ft 274 kts 152°
2026-05-01 11:44 48.95481 2.94694 9498 ft 278 kts 176°
2026-05-01 11:45 48.93561 2.94237 10109 ft 285 kts 201°
2026-05-01 11:45 48.91846 2.92642 10488 ft 298 kts 214°
2026-05-01 11:45 48.90117 2.90724 10626 ft 317 kts 214°
2026-05-01 11:45 48.88315 2.88694 11023 ft 325 kts 214°
2026-05-01 11:46 48.86490 2.86629 11577 ft 329 kts 214°
2026-05-01 11:46 48.84648 2.84546 12164 ft 331 kts 214°
2026-05-01 11:46 48.82790 2.82457 12754 ft 334 kts 214°
2026-05-01 11:46 48.80908 2.80353 13347 ft 337 kts 213°
2026-05-01 11:47 48.79013 2.78249 13937 ft 339 kts 213°
2026-05-01 11:47 48.77104 2.76131 14456 ft 341 kts 213°
2026-05-01 11:47 48.75185 2.73998 14975 ft 343 kts 213°
2026-05-01 11:47 48.73254 2.71847 15488 ft 345 kts 213°
2026-05-01 11:48 48.71312 2.69685 16008 ft 347 kts 213°
2026-05-01 11:48 48.69247 2.67750 16223 ft 354 kts 199°
2026-05-01 11:48 48.66863 2.66674 16392 ft 362 kts 192°
2026-05-01 11:48 48.64407 2.65731 16763 ft 366 kts 191°
2026-05-01 11:49 48.61927 2.64790 17206 ft 368 kts 191°
2026-05-01 11:49 48.59430 2.63847 17658 ft 370 kts 191°
2026-05-01 11:49 48.56924 2.62897 18100 ft 372 kts 191°
2026-05-01 11:49 48.54403 2.61938 18548 ft 374 kts 191°
2026-05-01 11:50 48.51876 2.60975 18937 ft 376 kts 191°
2026-05-01 11:50 48.49336 2.60002 19288 ft 378 kts 191°
2026-05-01 11:50 48.46783 2.59022 19612 ft 379 kts 191°
2026-05-01 11:50 48.44217 2.58042 19937 ft 381 kts 191°
2026-05-01 11:51 48.41640 2.57062 20266 ft 383 kts 191°
2026-05-01 11:51 48.39053 2.56081 20589 ft 384 kts 191°
2026-05-01 11:51 48.36452 2.55096 20919 ft 386 kts 191°
2026-05-01 11:51 48.33840 2.54107 21235 ft 388 kts 191°
2026-05-01 11:52 48.31217 2.53112 21568 ft 390 kts 191°
2026-05-01 11:52 48.28580 2.52113 21908 ft 391 kts 191°
2026-05-01 11:52 48.25931 2.51112 22233 ft 393 kts 191°
2026-05-01 11:52 48.23268 2.50107 22577 ft 395 kts 191°
2026-05-01 11:53 48.20595 2.49097 22925 ft 397 kts 191°
2026-05-01 11:53 48.17911 2.48082 23262 ft 399 kts 191°
2026-05-01 11:53 48.15214 2.47066 23601 ft 401 kts 191°
2026-05-01 11:53 48.12502 2.46045 23919 ft 403 kts 191°
2026-05-01 11:54 48.09781 2.45022 24215 ft 404 kts 191°
2026-05-01 11:54 48.07016 2.43981 24509 ft 405 kts 191°
2026-05-01 11:54 48.04308 2.42962 24799 ft 407 kts 191°
2026-05-01 11:54 48.01525 2.41919 25092 ft 408 kts 191°
2026-05-01 11:55 47.98803 2.40902 25371 ft 409 kts 190°
2026-05-01 11:55 47.96001 2.39855 25653 ft 410 kts 190°
2026-05-01 11:55 47.93227 2.38825 25938 ft 412 kts 190°
2026-05-01 11:55 47.90441 2.37793 26235 ft 413 kts 190°
2026-05-01 11:56 47.87644 2.36753 26537 ft 414 kts 190°
2026-05-01 11:56 47.84880 2.35722 26819 ft 416 kts 190°
2026-05-01 11:56 47.82033 2.34661 27096 ft 417 kts 190°
2026-05-01 11:56 47.79213 2.33614 27368 ft 418 kts 190°
2026-05-01 11:57 47.76391 2.32565 27639 ft 420 kts 190°
2026-05-01 11:57 47.74510 2.31867 27812 ft 420 kts 191°
2026-05-01 11:57 47.70704 2.30453 28154 ft 422 kts 191°
2026-05-01 11:57 47.67848 2.29394 28416 ft 424 kts 191°
2026-05-01 11:58 47.64987 2.28338 28654 ft 425 kts 191°
2026-05-01 11:58 47.62110 2.27279 28896 ft 426 kts 191°
2026-05-01 11:58 47.56339 2.25155 29289 ft 429 kts 191°
2026-05-01 11:59 47.53441 2.24092 29478 ft 430 kts 191°
2026-05-01 11:59 47.50533 2.23028 29653 ft 431 kts 191°
2026-05-01 11:59 47.47614 2.21960 29814 ft 433 kts 191°
2026-05-01 12:00 47.41776 2.19817 30290 ft 431 kts 191°
2026-05-01 12:00 47.38864 2.18751 30482 ft 431 kts 191°
2026-05-01 12:00 47.33030 2.16621 30812 ft 433 kts 192°
2026-05-01 12:01 47.31096 2.15915 30920 ft 433 kts 192°
2026-05-01 12:01 47.28165 2.14847 31076 ft 434 kts 192°
2026-05-01 12:01 47.25233 2.13782 31231 ft 435 kts 192°
2026-05-01 12:01 47.22296 2.12718 31400 ft 435 kts 192°
2026-05-01 12:02 47.19351 2.11655 31583 ft 436 kts 193°
2026-05-01 12:02 47.16405 2.10590 31758 ft 436 kts 193°
2026-05-01 12:02 47.13452 2.09520 31924 ft 437 kts 193°
2026-05-01 12:02 47.10500 2.08447 32079 ft 438 kts 193°
2026-05-01 12:03 47.07546 2.07379 32249 ft 438 kts 194°
2026-05-01 12:03 47.04584 2.06312 32419 ft 438 kts 194°
2026-05-01 12:03 47.01624 2.05249 32590 ft 438 kts 194°
2026-05-01 12:03 46.98656 2.04185 32751 ft 439 kts 194°
2026-05-01 12:04 46.95689 2.03121 32918 ft 439 kts 195°
2026-05-01 12:04 46.92721 2.02058 33092 ft 439 kts 195°
2026-05-01 12:04 46.89755 2.00995 33224 ft 438 kts 195°
2026-05-01 12:05 46.83882 1.98881 33239 ft 433 kts 196°
2026-05-01 12:05 46.75114 1.95753 33241 ft 433 kts 196°
2026-05-01 12:06 46.69265 1.93674 33239 ft 433 kts 197°
2026-05-01 12:06 46.63416 1.91594 33230 ft 432 kts 197°
2026-05-01 12:07 46.57570 1.89527 33223 ft 433 kts 197°
2026-05-01 12:07 46.51718 1.87459 33218 ft 433 kts 197°
2026-05-01 12:08 46.45864 1.85398 33223 ft 433 kts 197°
2026-05-01 12:08 46.40000 1.83334 33222 ft 433 kts 197°
2026-05-01 12:09 46.34137 1.81279 33227 ft 433 kts 197°
2026-05-01 12:09 46.28269 1.79084 33239 ft 430 kts 204°
2026-05-01 12:10 46.20902 1.72274 33239 ft 420 kts 224°
2026-05-01 12:11 46.14261 1.63957 33224 ft 422 kts 223°
2026-05-01 12:11 46.09812 1.58429 33223 ft 422 kts 223°
2026-05-01 12:12 46.05361 1.52906 33225 ft 423 kts 223°
2026-05-01 12:12 46.00895 1.47374 33227 ft 424 kts 223°
2026-05-01 12:13 45.96468 1.41769 33225 ft 423 kts 228°
2026-05-01 12:13 45.93117 1.34900 33228 ft 420 kts 244°
2026-05-01 12:14 45.90479 1.27391 33231 ft 421 kts 244°
2026-05-01 12:14 45.87788 1.19846 33235 ft 422 kts 243°
2026-05-01 12:15 45.85113 1.12400 33241 ft 423 kts 243°
2026-05-01 12:15 45.82349 1.04951 33242 ft 423 kts 237°
2026-05-01 12:16 45.78389 0.98717 33239 ft 426 kts 221°
2026-05-01 12:16 45.73799 0.93249 33235 ft 427 kts 221°
2026-05-01 12:17 45.69251 0.87794 33227 ft 427 kts 221°
2026-05-01 12:17 45.64727 0.82375 33223 ft 427 kts 221°
2026-05-01 12:18 45.60136 0.76905 33217 ft 427 kts 221°
2026-05-01 12:18 45.55568 0.71476 33215 ft 427 kts 220°
2026-05-01 12:19 45.50986 0.66058 33213 ft 428 kts 220°
2026-05-01 12:19 45.46405 0.60649 33215 ft 428 kts 220°
2026-05-01 12:20 45.41816 0.55233 33212 ft 428 kts 220°
2026-05-01 12:20 45.37225 0.49827 33211 ft 428 kts 220°
2026-05-01 12:21 45.32635 0.44424 33211 ft 428 kts 220°
2026-05-01 12:21 45.28043 0.39028 33209 ft 428 kts 220°
2026-05-01 12:22 45.23446 0.33644 33205 ft 428 kts 220°
2026-05-01 12:22 45.18845 0.28275 33207 ft 428 kts 220°
2026-05-01 12:23 45.14237 0.22910 33205 ft 428 kts 219°
2026-05-01 12:23 45.09626 0.17556 33207 ft 428 kts 219°
2026-05-01 12:24 45.05016 0.12213 33208 ft 428 kts 219°
2026-05-01 12:24 45.00402 0.06876 33207 ft 428 kts 219°
2026-05-01 12:25 44.93494 -0.01116 33208 ft 428 kts 219°
2026-05-01 12:26 44.88878 -0.06422 33200 ft 428 kts 219°
2026-05-01 12:26 44.81952 -0.14364 33191 ft 427 kts 219°
2026-05-01 12:27 44.75029 -0.22285 33185 ft 427 kts 219°
2026-05-01 12:28 44.68095 -0.30193 33185 ft 428 kts 219°
2026-05-01 12:29 44.61021 -0.37845 33185 ft 428 kts 214°
2026-05-01 12:29 44.53579 -0.44811 33190 ft 429 kts 213°
2026-05-01 12:30 44.46159 -0.51826 33190 ft 429 kts 214°
2026-05-01 12:31 44.41240 -0.56553 33191 ft 429 kts 214°
2026-05-01 12:31 44.36320 -0.61273 33190 ft 429 kts 214°
2026-05-01 12:32 44.31399 -0.65970 33188 ft 428 kts 214°
2026-05-01 12:32 44.24022 -0.72924 33183 ft 428 kts 213°
2026-05-01 12:33 44.19038 -0.77490 33190 ft 429 kts 213°
2026-05-01 12:33 44.14012 -0.82069 33187 ft 429 kts 213°
2026-05-01 12:34 44.09027 -0.86629 33190 ft 428 kts 213°
2026-05-01 12:34 44.04053 -0.91196 33191 ft 429 kts 214°
2026-05-01 12:35 43.99067 -0.95754 33183 ft 429 kts 213°
2026-05-01 12:35 43.94065 -1.00303 33189 ft 429 kts 213°
2026-05-01 12:36 43.89073 -1.04839 33181 ft 429 kts 214°
2026-05-01 12:36 43.84074 -1.09382 33186 ft 429 kts 214°
2026-05-01 12:37 43.79915 -1.13146 33183 ft 429 kts 214°
2026-05-01 12:37 43.74913 -1.17666 33183 ft 430 kts 214°
2026-05-01 12:38 43.69909 -1.22190 33183 ft 430 kts 214°
2026-05-01 12:38 43.64897 -1.26701 33178 ft 430 kts 214°
2026-05-01 12:39 43.59882 -1.31200 33155 ft 430 kts 214°
2026-05-01 12:39 43.54870 -1.35697 33155 ft 430 kts 214°
2026-05-01 12:40 43.49861 -1.40189 33152 ft 430 kts 214°
2026-05-01 12:40 43.44844 -1.44664 33148 ft 430 kts 214°
2026-05-01 12:41 43.39823 -1.49131 33146 ft 430 kts 214°
2026-05-01 12:41 43.34802 -1.53598 33153 ft 430 kts 214°
2026-05-01 12:42 43.29774 -1.58058 33128 ft 430 kts 214°
2026-05-01 12:42 43.24361 -1.61521 33134 ft 432 kts 196°
2026-05-01 12:43 43.18414 -1.62780 33139 ft 433 kts 188°
2026-05-01 12:43 43.12466 -1.63756 33132 ft 433 kts 188°
2026-05-01 12:44 43.06489 -1.64754 33170 ft 432 kts 189°
2026-05-01 12:45 42.94565 -1.66719 33191 ft 431 kts 189°
2026-05-01 12:45 42.88577 -1.67709 33192 ft 430 kts 188°
2026-05-01 12:46 42.82668 -1.68684 33190 ft 430 kts 188°
2026-05-01 12:46 42.76723 -1.69654 33181 ft 430 kts 188°
2026-05-01 12:47 42.71000 -1.71797 33175 ft 427 kts 206°
2026-05-01 12:47 42.65682 -1.75376 33168 ft 427 kts 207°
2026-05-01 12:48 42.60365 -1.78958 33158 ft 427 kts 207°
2026-05-01 12:48 42.55040 -1.82536 33151 ft 427 kts 207°
2026-05-01 12:49 42.49707 -1.86097 33148 ft 427 kts 207°
2026-05-01 12:49 42.44373 -1.89657 33148 ft 428 kts 207°
2026-05-01 12:50 42.39033 -1.93220 33142 ft 428 kts 207°
2026-05-01 12:50 42.33688 -1.96780 33142 ft 428 kts 207°
2026-05-01 12:51 42.28340 -2.00338 33142 ft 429 kts 208°
2026-05-01 12:52 42.20306 -2.05667 33133 ft 429 kts 207°
2026-05-01 12:52 42.12238 -2.10979 33130 ft 431 kts 208°
2026-05-01 12:53 42.04157 -2.16316 33133 ft 432 kts 208°
2026-05-01 12:54 41.98756 -2.19873 33131 ft 433 kts 208°
2026-05-01 12:54 41.90624 -2.25216 33129 ft 435 kts 208°
2026-05-01 12:55 41.82441 -2.30553 33128 ft 437 kts 208°
2026-05-01 12:56 41.76966 -2.34128 33129 ft 438 kts 208°
2026-05-01 12:56 41.71484 -2.37703 33132 ft 439 kts 208°
2026-05-01 12:57 41.65988 -2.41266 33128 ft 439 kts 208°
2026-05-01 12:57 41.57743 -2.46614 33129 ft 440 kts 208°
2026-05-01 12:58 41.52238 -2.50171 33134 ft 440 kts 208°
2026-05-01 12:59 41.43973 -2.55508 33138 ft 440 kts 208°
2026-05-01 12:59 41.35704 -2.60824 33138 ft 440 kts 208°
2026-05-01 13:00 41.27913 -2.67096 33150 ft 436 kts 217°
2026-05-01 13:01 41.20443 -2.73968 33155 ft 435 kts 217°
2026-05-01 13:02 41.12982 -2.80784 33159 ft 433 kts 216°
2026-05-01 13:07 40.58724 -3.30032 33163 ft 428 kts 216°
2026-05-01 13:08 40.53806 -3.34438 33162 ft 428 kts 216°
2026-05-01 13:08 40.48894 -3.38838 33161 ft 427 kts 216°
2026-05-01 13:09 40.43977 -3.43232 33163 ft 427 kts 216°
2026-05-01 13:09 40.39067 -3.47620 33164 ft 427 kts 216°
2026-05-01 13:10 40.34158 -3.51993 33165 ft 427 kts 216°
2026-05-01 13:10 40.29246 -3.56355 33163 ft 426 kts 216°
2026-05-01 13:11 40.24342 -3.60708 33165 ft 426 kts 216°
2026-05-01 13:11 40.19436 -3.65058 33162 ft 426 kts 216°
2026-05-01 13:12 40.14534 -3.69395 33158 ft 425 kts 216°
2026-05-01 13:12 40.09629 -3.73720 33151 ft 425 kts 216°
2026-05-01 13:13 40.04733 -3.78040 33145 ft 425 kts 216°
2026-05-01 13:13 39.99831 -3.82344 33135 ft 425 kts 216°
2026-05-01 13:14 39.94928 -3.86644 33127 ft 425 kts 217°
2026-05-01 13:14 39.90033 -3.90947 33126 ft 424 kts 217°
2026-05-01 13:15 39.85133 -3.95242 33123 ft 425 kts 217°
2026-05-01 13:15 39.81063 -3.98804 33122 ft 424 kts 217°
2026-05-01 13:16 39.76163 -4.03086 33121 ft 424 kts 217°
2026-05-01 13:16 39.71256 -4.07356 33124 ft 424 kts 217°
2026-05-01 13:17 39.61413 -4.15902 33125 ft 424 kts 217°
2026-05-01 13:18 39.54058 -4.22273 33126 ft 424 kts 217°
2026-05-01 13:18 39.49150 -4.26506 33128 ft 424 kts 217°
2026-05-01 13:19 39.44252 -4.30733 33130 ft 423 kts 218°
2026-05-01 13:20 39.36907 -4.37062 33134 ft 423 kts 218°
2026-05-01 13:20 39.32040 -4.41238 33131 ft 422 kts 218°
2026-05-01 13:21 39.24675 -4.47560 33131 ft 422 kts 218°
2026-05-01 13:21 39.19781 -4.51742 33130 ft 422 kts 218°
2026-05-01 13:22 39.14884 -4.55913 33129 ft 422 kts 219°
2026-05-01 13:22 39.09991 -4.60080 33125 ft 421 kts 219°
2026-05-01 13:23 39.05051 -4.64146 33124 ft 426 kts 212°
2026-05-01 13:23 38.99678 -4.67413 33116 ft 427 kts 211°
2026-05-01 13:24 38.94292 -4.70651 33115 ft 427 kts 211°
2026-05-01 13:24 38.91594 -4.72269 32914 ft 427 kts 211°
2026-05-01 13:25 38.86249 -4.75464 31842 ft 420 kts 211°
2026-05-01 13:25 38.83613 -4.77040 31330 ft 416 kts 211°
2026-05-01 13:25 38.81004 -4.78604 30822 ft 412 kts 211°
2026-05-01 13:25 38.78420 -4.80154 30328 ft 408 kts 211°
2026-05-01 13:26 38.75856 -4.81690 29784 ft 405 kts 211°
2026-05-01 13:26 38.73321 -4.83206 29302 ft 399 kts 211°
2026-05-01 13:26 38.70820 -4.84699 28817 ft 394 kts 211°
2026-05-01 13:26 38.68350 -4.86174 28343 ft 389 kts 211°
2026-05-01 13:27 38.65917 -4.87626 27881 ft 383 kts 211°
2026-05-01 13:27 38.63520 -4.89054 27426 ft 377 kts 211°
2026-05-01 13:27 38.58832 -4.91843 26562 ft 366 kts 211°
2026-05-01 13:28 38.54272 -4.94557 25735 ft 357 kts 210°
2026-05-01 13:28 38.52029 -4.95887 25348 ft 354 kts 210°
2026-05-01 13:29 38.47589 -4.98520 24557 ft 350 kts 210°
2026-05-01 13:29 38.43203 -5.01123 23775 ft 345 kts 209°
2026-05-01 13:30 38.34588 -5.06215 22152 ft 337 kts 209°
2026-05-01 13:31 38.30358 -5.08712 21368 ft 333 kts 208°
2026-05-01 13:31 38.24114 -5.12391 20173 ft 327 kts 208°
2026-05-01 13:32 38.20014 -5.14801 19393 ft 323 kts 208°
2026-05-01 13:33 38.13949 -5.18362 18206 ft 318 kts 208°
2026-05-01 13:33 38.09965 -5.20702 17440 ft 313 kts 207°
2026-05-01 13:34 38.06030 -5.23006 16697 ft 310 kts 207°
2026-05-01 13:34 38.02141 -5.25278 15972 ft 306 kts 207°
2026-05-01 13:35 37.98285 -5.27529 15258 ft 304 kts 207°
2026-05-01 13:35 37.96371 -5.28648 14895 ft 303 kts 207°
2026-05-01 13:35 37.92569 -5.30873 14218 ft 299 kts 206°
2026-05-01 13:36 37.90655 -5.31986 13874 ft 298 kts 206°
2026-05-01 13:36 37.88780 -5.33077 13499 ft 296 kts 206°
2026-05-01 13:36 37.85037 -5.35257 12633 ft 297 kts 206°
2026-05-01 13:37 37.83164 -5.36346 12275 ft 295 kts 206°
2026-05-01 13:37 37.81311 -5.37422 11911 ft 292 kts 205°
2026-05-01 13:37 37.79478 -5.38488 11552 ft 289 kts 205°
2026-05-01 13:37 37.77655 -5.39548 11190 ft 287 kts 205°
2026-05-01 13:38 37.74051 -5.41640 10467 ft 284 kts 205°
2026-05-01 13:38 37.72261 -5.42675 10229 ft 280 kts 205°
2026-05-01 13:38 37.70490 -5.43699 10138 ft 280 kts 205°
2026-05-01 13:39 37.68715 -5.44724 10022 ft 280 kts 205°
2026-05-01 13:39 37.66936 -5.45756 9595 ft 284 kts 205°
2026-05-01 13:39 37.65154 -5.46789 9192 ft 281 kts 205°
2026-05-01 13:39 37.63378 -5.47816 8735 ft 279 kts 204°
2026-05-01 13:40 37.61655 -5.48811 8290 ft 267 kts 204°
2026-05-01 13:40 37.59999 -5.49768 7790 ft 257 kts 204°
2026-05-01 13:40 37.58361 -5.50715 7307 ft 261 kts 204°
2026-05-01 13:40 37.56703 -5.51671 6823 ft 261 kts 204°
2026-05-01 13:41 37.55068 -5.52613 6326 ft 256 kts 204°
2026-05-01 13:41 37.53467 -5.53533 5844 ft 251 kts 204°
2026-05-01 13:41 37.51882 -5.54445 5471 ft 250 kts 203°
2026-05-01 13:41 37.50301 -5.55353 5103 ft 251 kts 203°
2026-05-01 13:42 37.48713 -5.56266 4726 ft 250 kts 203°
2026-05-01 13:42 37.47125 -5.57179 4334 ft 252 kts 204°
2026-05-01 13:42 37.45531 -5.58096 4053 ft 250 kts 204°
2026-05-01 13:42 37.43995 -5.59004 3999 ft 238 kts 209°
2026-05-01 13:43 37.42770 -5.60302 4012 ft 224 kts 230°
2026-05-01 13:43 37.42047 -5.61966 3923 ft 215 kts 250°
2026-05-01 13:43 37.41840 -5.63817 3719 ft 215 kts 268°
2026-05-01 13:43 37.41840 -5.65692 3451 ft 214 kts 268°
2026-05-01 13:44 37.41840 -5.67576 3169 ft 216 kts 268°
2026-05-01 13:44 37.41838 -5.69458 2896 ft 215 kts 268°
2026-05-01 13:44 37.41836 -5.71306 2622 ft 207 kts 268°
2026-05-01 13:44 37.41833 -5.73089 2340 ft 201 kts 268°
2026-05-01 13:45 37.41830 -5.74809 2073 ft 190 kts 268°
2026-05-01 13:45 37.41828 -5.76421 1825 ft 178 kts 268°
2026-05-01 13:45 37.41825 -5.77904 1621 ft 161 kts 268°
2026-05-01 13:45 37.41822 -5.79258 1406 ft 151 kts 268°
2026-05-01 13:46 37.41819 -5.80555 1211 ft 146 kts 268°
2026-05-01 13:46 37.41813 -5.81823 1031 ft 144 kts 269°
2026-05-01 13:46 37.41808 -5.83092 854 ft 145 kts 268°
2026-05-01 13:46 37.41805 -5.84379 622 ft 149 kts 269°
2026-05-01 13:47 37.41810 -5.85683 422 ft 150 kts 268°
2026-05-01 13:47 37.41805 -5.87000 239 ft 151 kts 266°
2026-05-01 13:47 37.41807 -5.88300 108 ft 141 kts 265°
2026-05-01 13:47 37.41793 -5.89333 100 ft 92 kts 270°
2026-05-01 13:48 37.41792 -5.89924 99 ft 44 kts 269°
2026-05-01 13:48 37.41792 -5.90245 97 ft 16 kts 271°
2026-05-01 13:48 37.41841 -5.90301 97 ft 10 kts 351°
2026-05-01 13:48 37.41911 -5.90304 98 ft 10 kts 359°
2026-05-01 13:49 37.41971 -5.90288 96 ft 8 kts 48°
2026-05-01 13:49 37.41979 -5.90222 95 ft 7 kts 88°
2026-05-01 13:49 37.41980 -5.90165 95 ft 6 kts 89°
2026-05-01 13:49 37.41983 -5.90118 95 ft 5 kts 76°
2026-05-01 13:50 37.42004 -5.90100 98 ft 5 kts 13°
2026-05-01 13:50 37.42050 -5.90052 94 ft 11 kts 74°
2026-05-01 13:50 37.42087 -5.89977 95 ft 10 kts 45°
2026-05-01 13:50 37.42133 -5.89920 94 ft 9 kts 44°
2026-05-01 13:51 37.42173 -5.89870 94 ft 7 kts 44°
2026-05-01 13:51 37.42199 -5.89858 94 ft 5 kts 345°
2026-05-01 13:51 37.42231 -5.89896 94 ft 4 kts 315°
2026-05-01 13:51 37.42242 -5.89909 94 ft 0 kts 315°